Wind_Speed
44 47 47 43 38 34 30 28 25 21 19 17 14 12 9 5 4 3 4 4 4 5 5 4 3 3 4 6 7 8 9 12 20 26 26 26 23 22 19 20 22 24 27
40 45 46 43 39 34 32 29 26 22 20 18 16 15 12 9 6 4 2 2 3 4 4 4 4 4 5 7 9 10 12 13 17 25 25 26 22 21 20 21 22 21 24
40 43 46 43 39 36 33 30 26 23 21 19 17 16 14 11 8 7 5 2 1 1 3 5 5 6 7 8 9 10 11 13 15 20 24 24 22 21 22 22 21 19 20
39 42 46 43 39 36 32 30 26 23 22 20 18 16 15 13 11 9 8 5 3 2 2 3 4 6 7 8 10 11 12 14 15 19 22 24 24 23 23 23 23 19 20
38 42 44 43 39 35 34 31 27 25 24 21 19 18 17 15 13 12 10 9 7 5 4 4 4 5 6 8 9 11 12 13 15 18 20 22 23 25 25 22 22 21 19
35 40 44 44 39 37 35 32 29 27 26 24 22 20 18 16 14 13 12 10 8 7 6 5 5 6 7 8 10 11 12 14 15 17 19 21 22 23 23 20 19 22 22
33 38 43 43 40 38 36 33 31 29 27 26 24 22 19 17 16 15 13 11 10 9 8 6 6 6 6 7 9 10 11 13 14 16 18 19 20 20 21 19 14 13 14
35 39 43 44 42 39 37 35 32 31 29 27 25 23 21 19 17 16 15 13 11 10 9 8 7 7 7 8 8 9 9 10 11 13 14 16 17 18 18 18 14 10 10
38 42 45 46 43 40 39 37 34 32 31 29 27 25 23 20 19 17 16 15 13 12 10 9 8 8 7 8 9 9 9 9 11 13 13 15 15 16 17 15 13 9 8
38 44 46 46 44 41 39 37 35 33 31 29 28 26 24 22 20 19 18 17 15 14 12 11 10 9 8 8 8 8 8 8 9 11 12 13 14 15 15 15 14 9 6
34 40 46 46 44 41 39 38 35 34 32 32 29 28 27 25 23 22 21 19 16 15 14 13 11 11 9 8 8 9 9 9 10 10 10 11 12 14 14 14 13 11 7
28 37 44 47 45 43 40 39 37 34 34 33 33 31 30 28 26 24 23 20 18 18 16 15 14 12 11 10 10 10 10 10 10 9 9 11 12 13 12 13 12 11 8
24 33 37 42 44 44 42 41 38 37 36 36 36 35 33 30 28 26 24 22 22 20 19 18 17 15 13 12 11 11 11 11 10 9 9 10 10 11 11 10 9 10 8
24 30 35 39 41 41 41 42 39 39 40 41 38 36 35 31 29 28 27 26 25 24 22 21 20 18 17 15 14 13 13 12 10 9 9 8 9 8 9 9 8 7 6
24 30 33 33 35 36 36 39 39 39 39 37 36 35 34 32 28 26 26 27 26 25 24 25 23 21 20 18 16 15 15 14 12 10 9 8 8 7 7 7 6 5 4
20 24 27 30 31 32 33 36 37 37 37 34 35 33 31 28 26 24 25 26 26 27 28 29 26 24 22 20 18 17 16 15 14 12 11 9 8 7 6 5 5 4 4
16 22 25 25 27 28 29 32 35 36 36 33 33 32 31 29 28 26 25 25 26 31 34 31 29 26 24 21 20 19 17 16 15 14 13 11 9 8 5 3 2 1 1
10 13 17 20 22 24 26 27 28 29 29 29 30 31 30 30 31 29 28 28 31 35 35 33 30 28 26 24 22 20 19 17 16 15 14 12 10 9 7 5 3 2 2
10 12 13 14 15 16 18 20 21 21 22 23 23 25 29 29 30 30 29 33 35 36 36 34 31 30 27 25 24 22 21 19 18 17 15 13 11 11 10 8 6 5 4
10 12 14 14 14 14 15 16 17 18 19 19 19 20 22 22 24 26 27 30 33 35 35 34 32 30 28 26 25 23 22 21 19 18 16 14 13 12 12 11 9 8 8
6 8 10 12 13 12 12 12 12 13 13 13 15 16 17 17 17 17 19 22 25 27 30 32 31 28 27 26 24 23 23 22 20 19 17 15 14 14 13 12 11 11 10
8 10 11 12 12 11 12 12 12 11 11 11 11 10 9 10 12 14 16 16 17 19 21 22 20 22 24 25 24 23 22 21 21 20 18 16 15 15 14 13 12 12 12
10 11 12 13 12 12 11 11 9 8 8 7 6 6 7 8 8 10 13 17 17 18 20 21 20 19 18 20 20 20 19 19 18 18 18 18 17 15 14 13 12 12 12
13 13 13 14 13 13 13 13 12 10 10 9 8 7 6 5 4 4 5 7 9 13 16 18 18 17 17 16 17 17 17 16 16 16 17 17 17 16 16 15 14 14 15
16 16 17 18 18 18 18 18 17 16 15 14 14 13 12 10 9 7 6 4 2 2 3 6 9 12 14 14 15 15 15 14 14 15 15 16 16 16 17 16 17 17 17
20 21 22 21 21 21 20 20 19 18 17 17 16 15 14 12 11 10 9 7 6 5 4 2 4 6 8 10 11 11 11 12 12 13 14 15 16 17 17 17 18 18 18
Wind_Direction
220 217 213 211 213 215 217 217 220 225 226 223 220 214 212 203 141 93 64 53 52 47 49 38 14 15 357 347 335 329 313 309 301 320 333 336 339 338 343 343 345 348 352
220 217 212 211 211 214 216 215 219 223 222 220 220 216 217 218 193 173 144 55 32 23 19 14 358 1 357 344 336 331 321 319 313 321 335 339 343 343 349 356 355 354 359
220 217 210 210 212 216 215 215 219 222 220 219 220 218 220 222 214 197 196 208 234 16 355 348 343 348 354 347 340 336 329 327 326 325 334 342 346 348 352 352 359 359 6
224 218 211 212 214 216 214 216 219 219 219 218 219 219 219 221 220 210 200 202 221 248 291 313 330 341 345 343 340 339 337 334 335 338 342 348 354 351 346 348 353 9 5
225 219 213 214 215 214 213 215 217 218 217 217 218 219 219 219 221 223 216 207 210 227 251 282 306 321 325 333 341 343 340 340 343 345 349 352 353 353 353 354 354 358 9
227 219 212 213 213 213 213 214 217 217 217 218 218 219 220 221 220 227 233 228 223 228 239 257 277 295 316 330 336 340 344 347 346 345 349 346 352 349 354 358 353 358 3
227 217 212 211 213 214 213 215 219 219 220 219 218 220 220 221 221 223 230 236 238 241 249 258 272 289 308 326 331 336 342 345 350 347 344 344 349 348 350 357 354 355 351
227 216 211 212 214 214 214 217 219 220 221 222 221 221 222 222 223 224 227 233 239 247 255 264 275 290 305 318 323 328 336 340 343 342 342 345 349 350 350 349 348 356 355
227 217 213 214 214 215 216 218 220 222 221 221 222 223 224 224 224 226 229 234 236 240 246 253 263 275 290 306 316 323 333 340 340 342 345 348 353 355 354 355 353 350 5
226 219 216 216 217 218 220 221 222 224 224 224 225 225 226 226 226 229 231 235 238 241 245 251 258 269 279 292 305 315 325 332 335 337 342 348 354 358 360 360 0 359 352
235 224 220 219 220 221 222 223 225 225 225 224 226 227 227 227 228 230 233 237 240 244 248 253 257 261 270 282 294 305 315 322 326 331 343 352 357 1 4 4 3 5 357
238 228 223 220 221 221 222 224 225 225 227 226 225 226 228 229 229 231 234 238 240 245 249 254 257 260 266 274 282 290 299 308 316 327 340 352 353 357 357 2 7 10 4
236 230 225 222 222 223 223 225 224 225 227 229 228 231 229 229 231 234 235 237 240 244 248 251 255 258 262 266 272 280 288 296 307 318 329 343 350 354 354 356 3 12 16
228 228 224 223 224 224 224 227 226 226 228 228 228 233 233 231 233 235 237 239 241 244 246 251 254 257 259 264 266 272 279 286 295 303 313 326 334 345 354 1 8 2 13
224 222 225 224 225 226 227 231 228 230 233 236 237 238 238 241 241 243 244 245 248 250 251 251 252 254 257 259 263 266 271 278 284 288 294 303 313 329 348 359 12 20 26
221 222 220 220 217 222 223 228 228 231 233 233 237 240 243 247 247 245 245 246 246 245 246 247 249 252 255 257 261 263 266 271 275 278 281 287 296 310 334 353 10 32 40
222 215 214 221 217 219 220 224 228 228 230 228 233 238 239 242 244 243 242 241 241 242 243 245 247 251 253 256 258 260 264 265 270 272 273 277 280 287 297 318 343 21 63
203 206 205 209 211 214 217 221 224 224 228 228 231 236 241 245 245 244 243 240 237 239 242 245 247 250 252 254 255 257 259 261 262 264 266 266 268 269 272 271 269 268 260
191 191 189 191 196 200 204 209 214 218 221 226 231 236 246 248 249 247 241 238 241 242 246 246 247 248 250 251 251 252 254 255 256 256 256 256 256 258 259 257 254 252 250
209 199 189 190 191 196 203 210 216 221 228 237 244 246 247 246 245 245 244 242 239 242 246 248 246 247 249 248 248 248 250 251 252 252 251 249 250 250 252 251 249 245 243
207 204 199 196 195 199 209 219 224 227 232 234 236 239 241 241 241 241 247 249 251 249 248 249 251 249 247 245 245 245 246 247 246 246 246 244 245 247 248 248 247 247 244
165 171 175 177 179 183 189 196 201 205 209 216 223 230 225 226 224 220 220 227 239 248 254 260 260 256 250 245 243 244 244 244 245 241 241 241 241 243 244 245 247 248 246
142 141 141 139 142 145 151 155 160 164 170 179 187 195 200 208 216 220 222 223 222 224 232 241 249 252 247 238 237 238 239 243 244 244 242 239 238 239 242 244 247 250 251
122 126 126 124 126 129 128 128 126 124 123 121 120 121 123 130 151 181 212 228 234 237 241 245 248 244 233 233 235 238 241 244 243 241 239 237 238 240 243 248 252 254 254
114 117 113 113 115 113 113 111 109 107 105 103 101 99 96 95 96 98 103 110 126 170 206 217 221 222 222 225 231 236 239 240 239 237 237 239 243 246 249 252 255 256 256
112 111 110 110 108 106 104 103 101 99 97 94 91 89 87 85 82 80 80 79 82 88 102 149 196 209 218 224 228 231 233 236 238 241 243 246 248 251 253 255 256 256 255
Height
1415 1421 1428 1434 1441 1447 1452 1456 1460 1464 1466 1469 1471 1473 1474 1474 1473 1474 1474 1475 1475 1475 1475 1475 1475 1475 1475 1474 1474 1472 1472 1471 1467 1461 1458 1455 1451 1448 1446 1442 1437 1432 1426
1412 1416 1423 1430 1436 1442 1447 1452 1456 1460 1463 1466 1468 1470 1471 1472 1472 1473 1473 1474 1474 1475 1475 1475 1475 1474 1474 1473 1472 1470 1469 1468 1465 1459 1457 1453 1450 1447 1443 1440 1436 1432 1425
1406 1411 1418 1424 1431 1437 1443 1448 1452 1456 1459 1462 1464 1466 1468 1470 1471 1471 1471 1472 1473 1473 1474 1475 1475 1474 1472 1471 1470 1468 1467 1466 1463 1459 1454 1451 1447 1444 1440 1438 1435 1430 1427
1401 1406 1412 1419 1426 1433 1439 1444 1448 1452 1455 1458 1461 1463 1466 1468 1469 1469 1469 1469 1471 1472 1472 1473 1473 1473 1471 1470 1469 1467 1465 1463 1461 1457 1453 1449 1446 1442 1439 1435 1432 1429 1426
1396 1401 1408 1415 1422 1429 1434 1439 1443 1447 1451 1453 1456 1459 1462 1464 1466 1467 1466 1466 1467 1469 1470 1471 1472 1471 1470 1468 1467 1465 1463 1461 1459 1455 1452 1448 1444 1441 1437 1434 1432 1429 1426
1390 1396 1403 1410 1417 1423 1429 1434 1438 1442 1446 1449 1452 1455 1458 1461 1462 1464 1465 1465 1466 1467 1467 1468 1469 1469 1468 1466 1465 1462 1461 1459 1458 1455 1451 1447 1444 1441 1438 1434 1432 1428 1426
1386 1391 1398 1405 1412 1418 1423 1428 1433 1436 1441 1444 1447 1450 1454 1456 1459 1460 1462 1464 1464 1465 1466 1467 1468 1467 1467 1465 1463 1461 1459 1458 1456 1454 1451 1447 1444 1440 1437 1434 1432 1430 1429
1380 1385 1392 1399 1406 1412 1418 1423 1427 1431 1435 1440 1443 1446 1450 1452 1455 1457 1459 1461 1462 1463 1464 1465 1466 1465 1465 1463 1462 1460 1458 1457 1455 1453 1450 1447 1444 1441 1438 1434 1432 1430 1429
1372 1378 1385 1392 1398 1405 1411 1416 1421 1426 1430 1434 1438 1441 1445 1449 1451 1453 1455 1458 1458 1459 1461 1462 1463 1463 1462 1462 1461 1459 1457 1455 1454 1451 1449 1446 1443 1441 1438 1435 1432 1429 1428
1364 1371 1379 1386 1392 1398 1405 1410 1416 1421 1425 1430 1433 1437 1441 1444 1447 1449 1451 1454 1455 1457 1458 1459 1460 1460 1460 1459 1459 1458 1456 1454 1453 1451 1449 1445 1443 1441 1438 1435 1433 1430 1428
1360 1366 1372 1379 1386 1393 1399 1405 1410 1415 1420 1424 1428 1432 1435 1438 1442 1445 1447 1449 1451 1453 1454 1456 1457 1457 1457 1457 1457 1456 1454 1453 1451 1449 1447 1446 1443 1441 1439 1436 1434 1432 1430
1354 1358 1364 1372 1379 1385 1391 1397 1404 1409 1413 1417 1421 1425 1428 1432 1437 1439 1442 1445 1447 1449 1451 1453 1453 1454 1454 1454 1454 1453 1452 1451 1449 1449 1447 1445 1443 1441 1439 1437 1435 1433 1431
1347 1352 1358 1365 1371 1377 1384 1390 1396 1401 1406 1411 1414 1417 1421 1425 1430 1434 1437 1441 1442 1444 1447 1448 1449 1450 1450 1451 1451 1451 1450 1449 1448 1447 1446 1444 1443 1441 1440 1438 1435 1434 1433
1342 1347 1352 1358 1365 1371 1377 1382 1388 1392 1397 1401 1407 1412 1416 1419 1422 1427 1431 1434 1437 1439 1441 1442 1444 1445 1446 1446 1446 1447 1447 1446 1446 1446 1444 1443 1442 1440 1439 1437 1435 1435 1434
1338 1342 1347 1354 1359 1365 1370 1375 1382 1386 1392 1397 1401 1405 1410 1414 1417 1422 1426 1429 1432 1434 1436 1436 1438 1440 1441 1442 1442 1443 1443 1443 1443 1443 1442 1441 1440 1439 1437 1437 1435 1434 1434
1335 1339 1343 1349 1353 1358 1364 1369 1375 1379 1385 1390 1394 1400 1404 1409 1412 1416 1419 1423 1426 1427 1427 1429 1432 1434 1435 1436 1437 1438 1438 1439 1440 1440 1440 1439 1439 1439 1437 1436 1436 1435 1435
1334 1337 1340 1344 1348 1353 1357 1363 1367 1372 1377 1382 1388 1393 1397 1402 1404 1408 1412 1415 1417 1418 1417 1421 1424 1427 1429 1430 1432 1434 1435 1436 1436 1436 1437 1437 1437 1438 1437 1436 1435 1436 1435
1334 1336 1338 1341 1344 1348 1353 1358 1363 1367 1371 1375 1381 1386 1389 1393 1396 1400 1404 1407 1407 1406 1410 1413 1417 1420 1422 1424 1426 1429 1430 1431 1431 1432 1434 1434 1435 1435 1436 1436 1435 1435 1435
1334 1336 1337 1339 1342 1346 1350 1355 1359 1362 1366 1371 1374 1378 1381 1385 1388 1391 1394 1395 1397 1399 1403 1406 1410 1412 1415 1417 1420 1422 1424 1425 1426 1427 1428 1430 1431 1433 1433 1434 1433 1434 1433
1332 1334 1335 1337 1341 1345 1348 1353 1356 1359 1362 1365 1367 1371 1374 1378 1380 1382 1385 1387 1390 1392 1395 1398 1402 1406 1408 1410 1413 1415 1418 1419 1421 1423 1424 1425 1427 1428 1430 1431 1431 1431 1431
1331 1332 1334 1335 1337 1340 1344 1349 1352 1355 1358 1360 1363 1366 1368 1371 1374 1376 1378 1380 1383 1386 1389 1391 1395 1398 1401 1403 1406 1409 1411 1413 1415 1418 1421 1421 1423 1425 1426 1427 1428 1428 1429
1331 1332 1333 1334 1336 1338 1342 1346 1350 1353 1356 1359 1361 1364 1365 1367 1369 1371 1373 1376 1379 1382 1384 1386 1388 1391 1393 1396 1399 1402 1405 1407 1410 1412 1415 1417 1418 1420 1422 1423 1424 1425 1426
1333 1334 1335 1336 1338 1340 1343 1347 1350 1353 1355 1357 1359 1361 1363 1364 1366 1367 1369 1372 1374 1376 1379 1381 1383 1385 1387 1390 1393 1396 1399 1401 1404 1407 1409 1412 1414 1416 1418 1419 1420 1421 1422
1334 1337 1338 1339 1342 1344 1345 1348 1351 1353 1356 1357 1359 1360 1361 1363 1364 1365 1367 1369 1371 1372 1374 1376 1379 1381 1383 1385 1388 1392 1394 1396 1399 1401 1404 1407 1409 1411 1413 1414 1416 1417 1418
1338 1341 1341 1343 1346 1348 1349 1351 1353 1355 1357 1360 1361 1362 1363 1364 1366 1366 1367 1369 1369 1370 1371 1373 1375 1378 1379 1382 1385 1387 1390 1392 1394 1397 1399 1402 1404 1406 1407 1409 1411 1412 1413
1344 1345 1346 1349 1350 1352 1354 1356 1358 1359 1361 1363 1364 1365 1365 1366 1367 1368 1369 1370 1371 1371 1372 1373 1375 1376 1378 1380 1382 1384 1386 1388 1391 1393 1395 1398 1399 1401 1402 1403 1405 1406 1407